Terminal Aerodrome Forecast
Issued by NWS

Home | Current Version | Previous Version | Text Only | Print | Product List | Glossary On
Versions: 1 2 3 4 5 6 7 8 9 10 11 12 13 14 15 16
000
FTUS46 KHNX 290732 AAA
TAFVIS
TAF AMD
KVIS 290732Z 2908/3006 00000KT 1/4SM FG VV002
      TEMPO 2917/2919 1SM BR BKN005
     FM291900 00000KT 1SM BR BKN005
     FM292000 VRB03KT 2SM BR SCT005 BKN200
     FM292100 29005KT 3SM HZ BKN200=

USA.gov is the U.S. government's official web portal to all federal, state and local government web resources and services.